Weather History for KMHT - September, 2013

Change the Weather History Date:

Monday, September 16, 2013

  Actual Average Record
Temperature  
Mean Temperature 57 °F -  
Max Temperature 66 °F 71 °F 89 °F (1957)
Min Temperature 48 °F 47 °F 28 °F (1964)
Degree Days  
Heating Degree Days 8    
Growing Degree Days 7 (Base 50)    
Moisture  
Dew Point 47 °F    
Average Humidity 67    
Maximum Humidity 84    
Minimum Humidity 48    
Precipitation  
Precipitation 0.00 in - - ()
Sea Level Pressure  
Sea Level Pressure 30.10 in    
Wind  
Wind Speed 5 mph (NW)    
Max Wind Speed 20 mph    
Max Gust Speed 24 mph    
Visibility 10 miles    
Events Rain    
Averages and records for this station are not official NWS values.
T = Trace of Precipitation, MM = Missing Value Source: NWS Daily Summary

Daily Weather History Graph

Daily Weather History Graph

Search for Another Location

Airport or City:

Trip Planner

Search our weather history database for the weather conditions in past years. The results will help you decide how hot, cold, wet, or windy it might be!

Date:

Astronomy

Sep. 16, 2013 Rise Set
Actual Time 6:26 AM EDT 6:53 PM EDT
Civil Twilight 5:58 AM EDT 7:21 PM EDT
Nautical Twilight 5:24 AM EDT 7:55 PM EDT
Astronomical Twilight 4:50 AM EDT 8:29 PM EDT
Moon 5:03 PM EDT (9/16) 3:05 AM EDT (9/16)
Length of Visible Light 13h 23m
Length of Day
12h 26m
Waxing Gibbous, 90% of the Moon is Illuminated
Sep 16
Waxing Gibbous
Sep 19
Full
Sep 26
Last Quarter
Oct 4
New
Oct 11
First Quarter

Hourly Weather History & Observations

Time (EDT) Temp. Dew Point Humidity Pressure Visibility Wind Dir Wind Speed Gust Speed Precip Events Conditions
12:53 AM 57.0 °F 51.1 °F 81% 30.07 in 10.0 mi South 3.5 mph - N/A   Clear
1:53 AM 57.0 °F 51.1 °F 81% 30.04 in 10.0 mi SSE 3.5 mph - N/A   Clear
2:53 AM 57.0 °F 51.1 °F 81% 30.04 in 10.0 mi South 4.6 mph - N/A   Clear
3:53 AM 57.9 °F 51.1 °F 78% 30.04 in 10.0 mi Calm Calm - N/A   Clear
4:53 AM 55.9 °F 51.1 °F 84% 30.03 in 10.0 mi Calm Calm - N/A   Clear
5:53 AM 55.9 °F 51.1 °F 84% 30.05 in 10.0 mi SSW 3.5 mph - N/A   Clear
6:53 AM 57.0 °F 51.1 °F 81% 30.05 in 10.0 mi Calm Calm - N/A   Mostly Cloudy
7:53 AM 57.9 °F 51.1 °F 78% 30.07 in 10.0 mi Calm Calm - 0.00 in Rain Light Rain
8:53 AM 57.9 °F 51.1 °F 78% 30.07 in 10.0 mi Calm Calm - 0.00 in Rain Light Rain
9:53 AM 59.0 °F 52.0 °F 78% 30.06 in 10.0 mi South 5.8 mph - 0.00 in   Mostly Cloudy
10:53 AM 61.0 °F 52.0 °F 72% 30.07 in 10.0 mi Variable 3.5 mph - N/A   Scattered Clouds
11:53 AM 64.9 °F 48.9 °F 56% 30.06 in 10.0 mi NW 8.1 mph - N/A   Mostly Cloudy
12:53 PM 64.0 °F 48.0 °F 56% 30.06 in 10.0 mi NW 8.1 mph 17.3 mph N/A   Mostly Cloudy
1:53 PM 64.9 °F 48.9 °F 56% 30.06 in 10.0 mi NW 6.9 mph - N/A   Mostly Cloudy
2:53 PM 66.0 °F 50.0 °F 56% 30.07 in 10.0 mi North 19.6 mph 24.2 mph N/A   Mostly Cloudy
3:53 PM 63.0 °F 50.0 °F 63% 30.08 in 10.0 mi NNW 12.7 mph 18.4 mph N/A   Mostly Cloudy
4:53 PM 63.0 °F 44.1 °F 50% 30.09 in 10.0 mi NNW 17.3 mph 24.2 mph N/A   Scattered Clouds
5:53 PM 62.1 °F 42.1 °F 48% 30.12 in 10.0 mi NNW 11.5 mph 21.9 mph N/A   Scattered Clouds
6:53 PM 57.0 °F 39.9 °F 53% 30.15 in 10.0 mi NNW 13.8 mph 21.9 mph N/A   Partly Cloudy
7:53 PM 54.0 °F 39.0 °F 57% 30.19 in 10.0 mi NNW 10.4 mph - N/A   Clear
8:53 PM 52.0 °F 37.0 °F 57% 30.22 in 10.0 mi NNW 11.5 mph - N/A   Clear
9:53 PM 50.0 °F 36.0 °F 59% 30.24 in 10.0 mi NNW 10.4 mph 18.4 mph N/A   Clear
10:53 PM 48.9 °F 35.1 °F 59% 30.28 in 10.0 mi NNW 9.2 mph - N/A   Clear
11:53 PM 48.0 °F 34.0 °F 58% 30.30 in 10.0 mi NNW 8.1 mph - N/A   Clear